Vancouver Int'l Airport, British Columbia

Past 24 Hour Conditions

This table is a summary of hourly weather conditions for the past 24 hours. This summary includes the following parameters: temperature, humidity, dew point, wind speed and direction, air pressure, visibility and/or wind chill and humidex.
Date / Time
(PDT)
Conditions Temp (°C) Humidity (%) Dew Point (°C) Wind (km/h) Pressure (kPa) Visibility (km)
24 July 2014
20:00 Mostly Cloudy 19 64 12 SSE 8 102.1 24
19:00 Mostly Cloudy 19 65 13 SE 8 102.1 24
18:00 Mostly Cloudy 20   63 12 E 11 102.1 24
17:00 Mostly Cloudy 20   61 12 ENE 8 102.1 24
16:00 Mostly Cloudy 18 72 13 SE 12 102.2 24
15:00 Mostly Cloudy 18 74 14 SE 17 102.1 24
14:00 Mostly Cloudy 17 68 11 WSW 7 102.1 24
13:00 Mostly Cloudy 18 73 13 SSW 8 102.1 24
12:00 Mostly Cloudy 16 76 12 SSW 5 102.0 24
11:00 Mostly Cloudy 17 79 13 WNW 7 102.0 24
10:00 Mostly Cloudy 15 89 13 SE 9 101.9 24
9:00 Mostly Cloudy 14 92 13 SSE 16 101.8 24
8:00 Light Rain 14 94 13 SSE 17 101.8 19
7:00 Light Rain 13   97 13 SSE 14 101.7 16
6:00 Light Rain 13   97 13 SE 16 101.7 13
5:00 Light Rain 13   97 13 SE 13 101.7 19
4:00 Light Rain 13   96 13 SE 13 101.7 19
3:00 Light Rain 13   97 13 E 13 101.7 19
2:00 Light Rain 14 96 13 ESE 14 101.7 19
1:00 Light Rain 14 95 13 E 15 101.7 19
00:00 Partly Cloudy 14 95 13 E 14 101.7 19
23 July 2014
23:00 Partly Cloudy 14 94 13 E 14 101.7 19
22:00 Light Rain 14 93 13 ESE 16 101.7 16
21:00 Light Rain 14 94 13 SE 16 101.7 16
20:00 Light Rain 14 92 13 SSE 16 101.6 10
N/A
Not available
 ↑ 
Highest temperature
 ↓ 
Lowest temperature

If you require additional historical weather information, please visit Climate Data Online.